GFSGL_925_temp_132.txt.gz
Temp
25 25 25 25 25 24 23 24 24 24 24 24 24 24 24 24 24 24 24 25 25 25 25 25 25 25 26 27 27 27 27 28 28 29 28 26 24 24 24 24 22 21 19
26 25 25 25 25 25 24 24 24 23 24 23 23 24 24 24 24 24 24 25 24 25 25 25 25 26 25 25 26 26 27 26 26 27 27 27 24 24 23 23 25 21 19
26 25 25 25 25 25 25 25 24 24 24 24 23 23 23 24 24 24 24 24 25 25 25 25 25 25 25 25 25 26 27 26 24 24 25 26 25 25 22 22 23 21 20
26 26 25 25 25 25 25 24 24 24 24 24 24 24 23 24 23 24 24 24 24 25 25 24 25 25 25 24 24 24 25 24 23 24 25 27 24 24 23 22 23 23 22
25 25 25 25 25 25 25 24 24 24 24 23 24 24 23 24 24 24 24 24 24 24 24 23 24 24 24 23 23 24 23 23 23 23 24 25 23 26 25 23 22 22 21
24 24 25 24 24 24 24 24 23 23 23 23 23 23 24 24 24 23 23 24 23 23 24 24 23 23 22 23 23 22 22 22 22 22 23 23 23 24 24 23 22 21 23
23 21 22 22 22 23 23 23 23 23 24 23 23 23 23 23 23 23 23 22 24 23 23 23 23 22 21 20 22 21 21 22 22 22 22 21 21 20 21 21 22 22 22
21 22 21 22 22 22 22 23 23 22 23 23 23 23 23 22 21 22 22 22 22 23 22 22 21 21 21 21 20 19 18 19 19 22 20 18 18 18 20 21 20 18 19
20 21 21 22 21 21 21 22 22 21 21 21 21 21 21 21 19 19 19 20 22 20 20 20 20 20 19 19 19 18 18 17 17 18 18 18 19 19 19 21 22 23 24
21 20 20 21 20 19 20 20 20 21 20 19 18 18 18 19 17 18 18 18 19 20 17 16 18 18 18 18 18 17 16 16 16 16 16 16 16 17 19 19 19 22 22
19 19 19 19 19 19 19 18 18 18 18 18 18 18 17 17 16 17 18 17 18 18 18 16 16 17 17 17 17 17 17 16 16 16 16 16 15 14 14 15 16 16 18
19 19 19 18 18 18 17 16 14 15 15 15 15 15 15 15 16 16 17 16 16 15 14 14 15 15 15 15 16 16 16 15 15 15 15 13 13 13 12 12 12 13 13
17 16 16 16 16 16 16 15 14 14 14 12 13 14 13 13 14 15 15 15 14 14 14 13 13 13 13 13 14 14 13 13 13 12 12 13 13 12 11 11 11 12 12
15 14 14 15 15 15 14 13 13 13 12 11 12 12 12 13 12 12 13 13 13 13 12 12 12 12 13 13 12 12 12 12 13 13 12 12 12 12 13 13 14 14 15
14 13 13 13 14 13 13 12 12 11 11 12 11 11 13 15 13 13 13 12 11 12 12 11 11 11 11 11 11 11 11 11 11 12 12 13 13 14 13 14 14 14 15
13 12 12 12 12 12 12 11 11 11 11 11 11 11 12 12 12 12 12 12 12 12 11 10 10 10 10 10 10 11 11 12 12 12 14 13 14 14 13 13 13 14 14
12 11 11 11 11 11 10 10 8 8 9 10 11 11 11 12 11 12 11 11 11 11 10 10 11 11 11 12 11 11 10 10 11 12 13 13 13 12 13 13 13 14 14
13 13 12 12 12 12 12 11 11 11 10 10 11 12 12 12 12 12 12 11 10 10 10 11 11 11 10 10 10 10 10 9 10 10 12 12 13 13 13 13 12 13 13
16 16 15 14 14 14 12 13 12 12 11 11 11 11 11 12 12 11 10 12 13 12 12 12 11 10 10 9 9 9 9 10 10 11 11 11 12 12 12 12 10 9 10
16 15 17 17 15 16 16 16 16 15 15 15 14 13 11 11 11 11 12 12 14 14 15 14 13 13 12 11 11 11 11 11 11 11 11 11 10 11 11 10 10 11 10
18 16 16 17 18 18 17 17 17 17 17 17 16 14 14 15 16 15 14 14 15 15 15 14 13 13 12 11 11 11 11 11 11 11 10 10 9 10 9 9 9 9 9
18 18 18 18 18 17 17 17 17 17 17 16 16 13 13 13 16 15 15 15 15 14 14 13 13 12 12 11 11 11 11 11 10 10 10 9 9 9 8 9 9 9 10
18 18 18 18 18 17 16 17 18 17 17 17 17 16 14 15 16 15 15 15 15 14 14 13 12 12 12 11 11 11 11 11 10 10 10 9 9 9 9 10 10 10 10
18 18 18 18 17 17 18 18 17 16 17 17 17 17 16 16 16 15 15 15 14 14 14 13 13 12 12 11 11 11 11 11 10 9 10 10 10 9 10 10 10 10 10
18 18 18 17 17 17 17 17 17 17 17 17 17 17 17 16 16 16 15 15 15 14 14 13 13 13 12 11 12 12 11 10 10 10 9 10 10 9 10 11 10 10 10
18 18 17 17 17 17 17 17 17 17 17 17 17 17 16 16 16 16 16 16 15 15 15 14 14 13 13 12 11 11 10 10 9 9 10 10 10 10 10 10 10 10 10

GFSGL_925_temp_135.txt.gz
Temp
27 27 26 26 26 25 25 25 25 25 25 25 25 25 25 25 25 25 25 25 25 26 26 26 27 26 27 28 29 29 29 30 30 30 29 26 26 25 25 23 22 20 21
27 27 27 27 27 27 25 25 25 24 24 25 25 25 25 25 25 24 24 26 26 26 26 26 26 27 26 26 27 27 28 27 27 27 28 28 26 25 25 23 23 20 20
27 27 27 27 27 27 26 26 25 24 24 25 24 24 25 25 25 24 24 24 25 26 26 26 26 26 26 27 26 26 28 26 27 26 26 27 26 25 24 23 23 21 19
28 28 27 27 27 27 27 27 26 26 24 25 24 24 24 24 25 25 25 24 25 26 26 26 26 26 26 26 25 24 25 26 25 25 25 25 24 26 24 23 24 22 21
27 27 27 26 26 26 26 26 26 26 26 25 25 25 24 24 25 25 24 24 24 25 25 26 26 25 25 25 24 23 24 24 23 23 23 23 24 24 22 23 23 23 22
25 26 26 25 25 25 25 25 25 25 25 25 25 25 24 26 26 26 25 24 24 23 24 24 24 24 24 24 23 23 23 23 23 24 23 23 23 23 23 22 22 23 24
24 24 24 24 24 24 24 23 24 24 23 23 24 25 24 24 24 23 24 24 24 25 24 23 23 23 23 22 22 22 22 22 22 22 23 23 23 22 22 22 22 22 23
22 22 23 23 24 23 23 23 23 23 23 23 23 23 23 24 24 23 22 22 22 24 25 24 23 23 22 22 21 21 18 20 21 22 22 20 20 20 21 22 21 20 21
21 22 22 23 22 22 23 23 22 22 22 22 23 22 22 22 22 22 21 21 23 23 23 22 22 21 21 21 22 20 17 18 18 20 20 19 19 19 20 21 21 23 24
20 21 21 21 21 21 21 21 21 21 21 21 21 21 21 20 20 20 20 20 23 22 20 20 20 20 20 20 20 18 16 16 16 17 17 17 17 18 19 19 19 21 23
19 19 20 20 20 20 20 19 19 19 19 19 18 19 19 19 18 18 19 18 19 19 20 20 18 18 18 18 18 17 17 16 16 16 16 16 16 17 17 18 18 19 18
19 18 19 19 19 19 18 18 17 17 16 15 15 15 15 16 17 17 18 17 17 17 18 16 15 15 15 15 15 15 15 15 15 15 14 14 14 14 15 16 16 17 16
17 17 17 17 17 16 16 15 14 14 14 13 14 13 13 13 14 15 16 17 16 15 15 14 14 14 14 13 14 14 13 13 13 12 12 12 12 13 14 15 15 14 14
16 16 16 16 15 14 14 13 13 13 13 13 13 13 13 13 13 12 13 14 13 13 13 12 12 12 12 13 13 12 12 11 11 12 11 11 11 12 13 14 14 14 15
14 15 15 14 14 12 13 12 12 13 13 13 13 13 13 14 12 12 13 12 12 12 12 11 11 10 10 10 10 11 11 11 12 12 11 12 13 14 15 15 15 15 16
13 13 13 13 12 11 10 10 10 11 11 12 12 12 13 12 12 13 12 12 12 11 11 11 11 11 11 10 11 11 12 12 12 13 13 14 14 14 14 14 15 15 16
13 12 12 12 11 11 10 11 10 10 11 11 11 11 12 12 12 12 12 12 11 11 10 10 9 10 10 10 11 11 12 12 13 13 14 14 15 15 14 15 15 16 15
14 15 15 14 15 14 14 12 11 12 13 10 10 11 11 11 11 11 11 10 10 10 10 10 10 10 10 11 11 11 11 11 12 12 12 13 13 14 14 14 14 15 15
17 18 18 17 16 15 15 15 16 16 15 14 11 11 12 12 12 11 11 12 12 13 13 13 12 11 11 11 11 11 11 11 11 12 13 13 13 14 14 14 12 12 12
18 17 18 17 16 18 18 18 18 18 17 16 15 15 12 11 11 10 11 13 15 16 15 15 14 14 13 13 12 12 12 12 12 13 13 13 13 14 14 13 13 13 12
19 18 18 20 20 19 18 18 18 18 19 18 18 17 15 16 16 15 15 15 16 16 16 16 15 14 14 13 13 13 13 13 13 13 13 12 12 12 12 12 12 11 11
21 20 20 21 20 19 20 20 19 19 19 18 17 15 14 14 16 17 17 16 16 16 16 15 15 14 14 13 13 13 13 13 13 12 12 12 11 11 11 10 11 11 11
21 21 21 20 20 19 19 20 20 20 20 20 19 18 15 16 18 17 17 17 16 16 16 15 14 14 14 13 13 13 13 13 12 11 12 11 11 11 11 11 11 11 12
21 21 21 21 20 20 20 20 20 19 19 20 19 19 18 18 18 18 17 17 16 16 16 15 15 14 14 13 13 13 13 13 12 11 11 11 11 11 12 12 12 12 12
20 21 20 20 20 19 19 19 20 20 20 19 19 19 19 18 18 18 18 17 17 16 16 16 15 15 14 13 14 14 14 12 12 12 11 12 12 11 12 12 12 12 12
20 20 20 20 20 19 19 20 19 19 19 19 19 19 19 18 18 18 18 18 17 17 17 16 16 15 15 14 13 14 13 12 11 11 11 12 12 12 12 12 12 12 12

GFSGL_925_temp_138.txt.gz
Temp
26 25 25 24 24 25 24 24 26 25 25 25 25 25 25 25 25 25 25 25 25 25 25 26 26 26 26 27 27 27 27 28 27 27 28 26 26 24 22 23 22 23 22
27 26 26 26 25 25 25 25 25 25 25 25 24 24 24 25 25 25 24 25 25 25 25 26 26 26 27 26 26 27 27 28 27 27 27 27 26 25 24 22 21 22 21
27 27 27 26 26 26 25 25 25 25 25 24 25 24 24 25 25 25 24 24 24 24 25 25 26 26 26 26 26 26 26 26 26 26 25 26 25 24 23 23 22 21 20
28 27 27 27 27 27 27 26 26 25 25 24 24 25 24 24 24 24 24 24 24 24 25 25 26 26 26 26 25 25 25 25 24 24 24 25 24 23 22 21 21 20 21
28 28 27 27 27 27 27 26 26 25 25 24 24 24 24 24 24 24 24 24 24 24 24 25 25 26 26 25 25 24 24 24 23 23 23 23 23 23 22 23 22 21 21
25 28 27 27 26 26 26 25 25 25 25 24 24 24 24 24 24 25 25 25 24 24 24 24 24 24 24 25 24 24 23 23 23 22 23 23 23 23 22 23 22 22 21
21 24 24 25 25 24 24 24 24 24 24 24 24 24 24 24 24 24 24 24 24 24 24 24 24 23 24 23 23 23 23 22 22 22 22 23 23 22 22 22 22 22 22
21 23 23 23 23 23 24 24 24 24 23 24 24 24 24 23 23 23 23 24 23 23 24 23 23 23 22 22 22 21 20 20 20 20 21 21 21 20 22 21 21 21 21
20 20 22 22 22 23 22 22 22 22 22 22 23 23 23 23 22 22 21 21 22 23 23 22 22 22 22 22 21 20 19 18 18 19 18 19 19 20 20 21 21 21 21
19 21 20 21 21 21 21 21 21 22 21 21 21 21 21 21 21 20 21 21 21 22 21 20 21 21 21 19 20 20 18 17 17 16 16 17 18 19 19 20 20 20 20
19 19 20 20 19 19 19 20 19 19 19 20 19 18 18 18 18 19 19 20 20 21 19 18 19 20 19 18 19 18 18 16 15 15 15 16 16 16 17 17 17 18 18
18 18 18 18 18 18 18 18 18 18 17 17 16 16 16 16 16 17 19 18 18 18 18 17 16 16 17 16 17 15 15 15 15 14 14 13 13 13 13 13 15 16 16
18 18 17 17 17 17 17 16 17 16 16 14 14 14 13 14 14 14 14 16 17 16 15 15 13 14 15 15 14 14 14 14 13 12 12 11 11 11 11 12 14 15 15
16 17 16 16 15 15 15 15 14 14 14 14 14 13 13 13 13 12 13 14 14 14 13 13 13 13 13 13 13 13 12 12 12 12 12 12 12 12 13 14 14 15 14
16 15 15 15 14 14 14 13 13 13 14 14 13 13 13 13 13 13 13 13 13 13 12 12 11 11 11 11 12 12 12 12 12 11 11 12 13 13 13 14 15 16 16
14 14 13 13 12 12 12 11 12 12 12 13 13 13 14 13 12 13 12 12 12 12 11 11 11 11 11 11 10 10 11 11 11 11 12 12 13 13 14 15 15 15 15
13 12 13 12 12 11 11 11 11 11 11 11 12 12 12 12 12 12 12 12 11 11 11 11 10 10 11 11 11 11 11 11 11 12 13 13 14 14 14 15 15 15 15
15 14 15 15 14 13 12 13 14 13 12 11 11 11 11 11 11 11 11 11 11 11 11 10 11 11 11 11 11 11 11 12 12 13 14 13 14 14 14 14 14 14 15
17 17 17 16 15 15 15 15 15 15 14 12 12 11 11 11 11 11 11 12 13 13 12 12 12 11 11 11 11 11 11 12 12 12 13 13 13 14 14 13 13 13 13
18 18 18 17 17 17 18 18 18 16 16 15 14 14 12 12 11 11 12 12 13 15 14 14 13 13 13 12 12 11 11 12 12 12 13 13 13 14 14 13 13 12 12
19 18 18 19 19 18 19 19 19 19 19 18 18 16 15 14 15 14 13 14 15 16 16 16 15 14 14 13 12 12 12 12 13 13 14 13 13 13 13 12 12 12 11
21 20 20 21 21 20 20 20 19 19 19 18 16 16 15 15 15 16 16 17 16 16 16 16 15 15 14 14 13 13 13 13 13 13 13 12 12 12 11 11 11 11 11
21 22 22 21 21 20 20 20 20 20 20 19 18 16 15 15 16 17 17 17 16 16 16 15 15 14 14 13 13 13 13 13 13 12 12 12 11 11 10 10 11 11 11
20 22 22 22 21 20 21 20 20 20 20 20 20 19 18 18 18 18 18 17 17 17 16 15 15 14 14 14 13 13 13 13 13 12 12 11 11 11 11 11 12 12 13
19 20 21 21 21 20 20 20 21 21 20 20 20 20 20 19 19 19 18 18 17 17 17 16 16 15 15 14 14 14 14 13 13 12 12 12 12 12 11 12 12 12 12
20 21 21 20 20 20 20 20 20 20 20 20 20 19 19 19 19 19 18 18 18 17 17 17 16 16 16 15 14 14 14 13 13 12 12 11 12 12 11 12 12 12 12

GFSGL_925_temp_141.txt.gz
Temp
25 24 24 24 24 24 25 25 25 25 24 25 25 25 25 25 25 25 25 25 25 25 25 26 25 26 26 26 26 26 26 26 25 26 25 25 23 23 23 22 22 22 21
24 25 25 25 24 25 25 25 25 25 25 24 25 25 25 25 25 25 25 25 25 25 25 25 25 25 26 26 26 26 25 24 26 25 26 25 25 23 22 22 21 21 21
25 25 25 25 25 24 25 25 25 25 25 25 24 25 24 24 24 24 24 24 24 24 24 24 25 25 26 26 26 25 25 25 25 25 25 25 23 22 20 20 20 21 20
25 26 25 25 25 25 25 25 25 25 25 25 25 24 24 24 24 24 24 24 24 24 24 24 25 25 25 25 26 25 25 24 24 24 24 24 24 22 21 20 19 20 19
22 22 26 26 26 26 26 26 25 25 25 25 24 24 24 24 24 24 24 24 24 24 24 24 24 24 24 25 25 25 24 24 23 23 23 23 23 23 23 20 20 19 18
20 20 20 26 26 26 26 26 25 25 25 24 24 24 24 24 24 24 24 24 24 24 24 24 24 24 24 24 24 23 23 23 23 23 23 23 23 23 23 22 20 18 18
20 18 18 24 26 26 25 25 25 25 24 24 24 24 24 24 24 24 24 24 24 24 24 24 24 24 23 23 23 23 23 22 21 22 21 21 22 22 22 22 22 22 20
19 18 19 21 25 25 25 24 25 24 24 24 24 24 24 24 24 23 23 23 23 23 23 23 23 23 23 22 22 21 21 20 21 20 20 20 20 21 21 22 22 21 20
19 19 20 21 22 23 24 24 23 23 23 23 23 23 23 23 23 23 23 23 23 23 22 22 22 22 22 22 20 21 19 18 18 18 18 17 18 18 19 20 20 20 19
21 20 21 20 21 21 21 21 21 21 21 22 21 21 21 21 21 21 21 20 20 21 21 21 21 21 21 20 20 19 18 17 16 16 16 17 17 18 19 19 19 19 18
19 19 19 20 20 19 19 19 19 20 20 19 19 18 18 18 18 18 18 19 19 19 19 19 19 20 20 19 19 19 18 16 15 16 15 15 15 15 15 14 14 15 15
18 18 19 19 18 17 18 18 18 18 18 17 17 16 16 16 16 17 17 18 18 18 18 17 16 16 18 18 17 16 16 15 15 15 15 14 14 14 13 13 13 11 12
18 17 17 17 17 17 17 17 16 15 16 15 15 15 14 14 15 15 15 17 17 16 15 14 14 14 15 15 15 14 14 15 14 14 13 12 12 12 11 11 12 12 13
17 17 16 16 16 15 15 15 14 14 14 14 14 13 13 13 13 13 14 15 15 15 13 13 13 13 14 14 14 14 14 13 13 13 12 11 11 11 11 11 12 13 14
16 15 15 15 14 14 14 13 13 13 14 14 14 14 13 13 13 12 12 13 13 13 13 12 12 12 12 12 12 12 12 12 12 12 12 12 12 12 13 14 14 14 14
15 15 14 13 13 13 12 11 12 13 13 13 13 14 14 14 13 13 12 12 11 11 11 11 11 11 11 11 11 11 11 11 11 12 12 12 12 13 13 14 14 15 14
15 14 13 13 12 12 12 12 12 11 12 13 13 13 13 13 12 12 12 12 11 11 11 11 11 11 11 11 11 11 11 12 12 12 12 13 13 13 14 14 14 14 14
15 15 14 14 13 13 13 13 13 12 11 11 11 11 11 11 12 12 12 12 12 12 12 11 11 11 11 11 11 11 11 12 12 13 13 13 14 14 14 14 14 14 14
16 16 15 15 15 14 14 14 14 13 13 12 12 12 12 11 11 11 11 12 12 12 12 12 12 12 12 12 12 12 12 12 12 12 13 13 13 14 14 14 13 13 13
18 17 17 16 16 15 15 15 15 14 14 14 13 13 13 12 12 12 12 13 13 13 13 14 13 13 13 12 12 12 12 12 12 12 13 13 13 13 13 13 13 13 12
18 18 18 18 17 17 18 17 17 16 15 14 14 15 15 14 13 13 14 14 15 15 14 15 14 14 13 13 12 12 12 12 12 12 13 13 13 13 13 12 12 12 12
19 20 19 19 18 18 19 19 19 19 17 17 16 16 15 15 15 15 15 16 16 16 16 16 15 14 14 13 13 13 12 12 13 13 13 13 13 12 12 12 12 11 11
19 19 20 20 20 19 19 19 19 19 19 18 18 17 16 16 16 16 16 16 16 16 16 16 15 14 14 14 13 13 13 13 13 13 13 12 12 11 11 11 11 11 11
19 19 20 21 20 20 20 20 20 20 19 18 18 17 18 18 18 17 17 17 17 16 16 16 15 15 14 14 13 13 13 13 13 13 12 12 11 11 11 11 11 11 11
19 19 19 20 21 20 20 20 20 20 20 20 18 18 18 18 18 18 17 17 17 17 16 16 15 15 15 14 14 14 13 13 13 13 12 12 11 11 11 11 11 11 12
19 19 20 20 20 20 20 20 20 20 20 20 20 20 19 18 18 18 18 18 17 17 17 16 16 16 15 15 15 14 14 14 13 13 12 12 11 11 11 12 12 12 12

GFSGL_925_temp_144.txt.gz
Temp
23 24 24 24 24 25 24 25 25 25 25 25 25 25 25 25 25 24 25 24 25 25 25 25 25 25 25 25 25 25 25 25 24 25 24 23 22 22 21 21 21 21 21
24 23 23 24 24 24 24 24 24 24 25 25 25 25 25 24 25 24 24 24 24 24 25 25 25 25 25 25 25 25 25 25 25 24 25 24 22 21 21 21 20 19 20
22 23 23 23 24 24 24 25 24 25 25 24 24 24 25 24 24 24 24 24 24 24 24 24 24 24 24 25 25 25 25 24 25 25 24 24 22 20 19 19 18 18 19
21 23 23 23 24 24 24 24 25 25 24 24 24 24 24 24 24 24 24 24 24 24 24 24 24 24 24 25 25 25 24 24 24 23 23 24 23 20 19 18 17 17 18
21 20 22 21 22 24 25 25 25 25 25 24 24 24 24 24 24 24 24 24 23 24 24 23 23 24 24 24 25 25 24 24 24 23 23 22 21 19 19 19 18 18 16
20 20 21 21 22 22 25 25 25 25 25 25 24 24 24 24 24 24 23 23 23 23 24 24 23 23 23 23 23 23 23 23 23 22 22 22 22 22 21 20 18 16 15
18 20 21 22 22 22 22 25 25 25 25 24 24 24 24 24 24 24 23 23 23 24 24 24 24 23 23 23 23 22 22 22 22 21 21 21 21 21 21 21 19 18 18
18 19 20 21 22 21 22 23 25 25 25 24 24 24 24 23 24 24 23 23 23 23 23 23 23 23 23 23 22 21 21 21 21 21 20 20 20 20 20 20 20 19 18
18 20 20 19 20 20 21 20 24 24 24 24 23 23 23 22 23 23 22 22 22 22 22 22 22 22 22 22 22 20 19 19 18 19 19 18 18 19 19 19 18 19 17
19 20 19 19 19 21 20 20 23 23 23 22 22 22 22 22 22 22 21 21 20 20 21 21 21 21 21 21 21 20 18 18 17 16 17 17 17 18 18 18 17 17 16
20 19 19 19 18 19 19 19 19 19 19 18 18 18 18 18 18 19 20 19 19 19 19 19 19 20 19 19 19 19 19 17 15 16 16 16 16 16 16 16 16 15 13
18 18 18 18 18 18 17 17 16 17 17 17 17 16 16 16 17 18 18 18 18 18 18 17 17 17 18 18 18 18 17 15 15 15 15 14 14 14 13 13 13 13 12
18 18 17 17 17 16 16 16 17 16 15 15 15 14 14 14 14 15 16 16 16 17 17 16 15 15 15 16 15 15 15 14 14 13 13 12 12 12 12 11 10 10 10
17 16 16 16 16 15 15 15 15 15 14 14 13 13 13 13 13 13 14 15 15 15 14 14 14 14 14 14 13 13 13 13 13 13 13 12 11 11 11 11 10 10 10
16 15 15 14 14 14 14 13 14 14 14 14 14 13 13 13 13 13 14 14 13 13 12 12 12 12 12 12 12 12 12 12 12 12 12 11 11 11 12 12 12 12 13
15 14 14 14 13 13 12 11 12 13 13 13 13 14 13 13 13 13 13 13 13 13 12 12 11 11 11 11 11 11 11 12 12 12 12 12 12 13 13 13 13 14 13
15 14 14 13 13 12 12 12 11 11 12 13 13 13 13 13 13 13 13 12 12 12 12 11 12 12 11 11 11 11 11 12 12 12 12 12 13 13 13 13 13 13 13
15 14 14 14 13 13 13 13 12 11 11 11 12 12 12 12 12 11 11 11 11 11 12 12 12 12 11 11 11 12 12 12 12 12 13 13 13 13 13 14 14 14 13
15 15 15 14 14 14 14 14 13 13 12 12 12 12 12 12 11 11 11 12 12 12 12 12 12 11 11 11 12 12 12 12 12 12 13 13 13 13 13 13 13 13 13
16 16 16 15 15 15 15 14 14 14 13 13 13 13 13 12 12 12 12 12 12 13 13 13 13 12 12 12 12 12 12 12 12 12 12 12 13 13 13 13 13 13 12
17 17 17 16 16 16 16 16 16 15 15 15 15 14 15 14 14 14 14 13 14 14 14 14 13 13 13 13 12 12 12 12 12 12 12 12 12 13 13 12 12 12 11
18 18 17 18 18 17 17 17 17 16 16 16 16 15 15 14 14 15 15 15 15 15 15 15 14 14 14 14 13 13 12 12 12 12 12 12 12 12 12 12 12 11 11
18 18 18 18 18 18 19 18 17 17 18 17 17 16 15 15 15 15 16 16 16 15 16 15 15 14 14 13 13 13 13 13 13 13 13 12 12 12 12 11 11 11 11
18 18 18 19 19 19 18 19 19 19 18 18 17 17 17 17 16 16 16 16 16 16 16 16 15 15 14 14 14 13 13 13 13 13 13 12 12 11 11 11 10 10 10
18 18 19 19 19 19 19 19 19 19 19 19 18 18 18 18 17 17 17 17 17 16 16 16 16 15 15 15 14 14 14 13 13 13 13 12 12 11 11 11 11 11 11
18 18 18 19 19 19 19 19 19 19 20 19 19 19 18 18 18 18 18 18 17 17 17 16 16 16 16 15 15 14 14 14 13 13 13 12 12 11 11 11 11 11 11

GFSGL_925_temp_147.txt.gz
Temp
24 23 23 23 24 24 25 25 25 25 25 25 25 25 25 25 25 24 24 24 24 24 24 24 24 24 24 24 24 24 24 24 23 24 22 22 21 21 20 20 20 21 20
24 23 23 23 23 24 24 25 25 24 25 25 25 25 25 24 24 24 24 24 24 24 24 24 24 24 24 24 24 24 24 24 24 24 23 21 20 20 20 20 19 19 20
23 23 23 23 23 23 24 24 24 24 24 25 25 25 25 25 24 24 24 24 24 24 24 24 24 24 24 24 24 24 24 24 24 24 24 22 21 20 19 18 18 19 19
22 22 22 23 23 23 23 24 24 24 24 24 24 24 25 25 24 24 24 24 23 24 24 23 24 23 23 24 24 24 24 23 23 23 23 22 21 20 18 18 17 18 18
20 21 22 22 22 22 23 23 24 24 24 24 24 24 24 24 24 24 23 23 24 23 23 23 23 23 23 23 23 24 24 23 23 22 22 21 21 18 17 19 18 17 17
19 19 20 20 21 22 23 23 23 23 24 24 24 24 24 24 24 24 23 23 23 23 23 24 23 23 23 23 23 23 23 23 21 20 21 20 21 21 20 19 17 15 14
19 19 19 19 20 21 22 23 23 23 24 24 24 24 24 24 24 24 24 24 23 23 23 23 23 23 23 23 23 23 22 22 22 21 21 21 20 20 20 19 18 17 17
18 18 18 18 19 20 21 21 23 24 24 24 25 24 24 24 24 24 23 23 23 23 23 23 23 23 23 23 22 22 21 21 21 21 20 20 20 19 19 18 18 17 17
17 18 19 18 19 19 19 20 21 24 24 23 24 24 24 24 24 23 23 23 22 22 22 22 22 22 22 22 22 21 20 20 20 20 19 19 19 19 18 18 17 17 14
18 18 18 19 19 19 19 19 19 19 20 22 23 23 23 23 22 23 22 22 22 21 21 21 21 21 21 21 21 21 20 19 18 17 17 16 16 17 18 17 17 15 15
18 19 19 18 18 19 18 18 18 18 18 18 18 18 18 18 17 17 18 18 19 19 19 20 20 20 20 19 19 19 19 18 16 16 16 15 15 15 15 15 16 15 15
18 18 18 18 17 17 18 17 17 17 17 16 15 15 16 15 16 17 17 17 17 18 18 17 17 17 18 18 18 18 18 16 15 14 14 13 14 13 13 13 13 13 13
18 17 17 16 16 16 17 17 17 17 16 15 15 14 13 14 14 15 16 16 16 17 16 16 15 15 16 16 16 14 13 14 13 13 13 12 11 11 11 11 12 12 11
17 16 16 16 16 15 15 16 15 15 15 14 14 14 13 14 14 14 14 15 15 15 14 14 14 14 14 13 13 13 12 12 13 12 11 11 11 11 11 12 12 11 11
16 15 14 15 14 14 14 14 14 14 14 14 14 13 13 13 13 14 14 14 14 14 14 13 13 13 13 13 12 12 12 12 12 12 12 11 11 11 11 11 11 11 11
15 14 14 13 13 12 13 12 13 13 13 14 13 13 13 13 13 14 14 13 13 12 13 12 12 12 12 12 12 12 12 12 11 11 11 12 12 12 12 12 12 12 12
14 14 13 13 13 12 12 13 12 12 13 13 13 13 13 13 13 13 12 12 11 12 12 12 12 11 11 11 11 11 11 11 11 11 12 12 12 12 12 13 13 12 12
14 14 14 13 13 13 13 13 12 12 12 12 12 12 13 12 12 12 12 11 11 12 12 12 12 12 11 11 11 11 12 12 12 12 12 12 12 13 13 13 13 13 12
14 14 14 13 13 13 13 13 12 12 12 11 11 11 11 11 11 11 12 12 12 12 12 12 12 12 12 12 12 12 12 12 12 12 12 12 13 13 13 13 13 12 12
15 15 15 14 14 13 13 13 13 13 12 12 12 12 11 11 11 11 12 12 12 12 12 12 12 12 12 12 12 12 12 12 12 12 12 12 12 12 13 13 12 12 12
17 16 15 15 15 15 15 14 14 14 14 14 14 14 14 14 14 13 13 13 14 14 14 13 13 13 13 13 12 12 12 12 12 12 12 12 12 12 13 12 12 12 12
17 17 17 16 16 15 16 15 15 15 15 15 15 15 14 14 14 14 14 14 14 15 14 14 14 14 14 13 13 12 12 12 12 12 12 12 12 12 12 12 12 11 11
18 17 17 18 18 18 17 17 17 17 16 16 16 16 15 15 15 15 15 15 15 15 15 15 15 14 14 13 13 13 13 13 13 12 12 12 12 12 12 11 11 11 10
18 18 18 18 17 17 17 18 18 18 18 18 17 17 17 17 16 16 16 16 16 16 16 16 15 15 14 14 14 13 13 13 12 13 13 12 12 12 11 11 10 10 10
18 18 18 18 18 18 18 18 18 17 18 18 18 18 18 17 17 17 17 16 16 16 16 16 16 15 15 15 14 14 14 13 13 13 13 12 12 11 11 10 10 10 10
17 17 17 18 18 19 19 19 19 18 18 18 19 19 18 18 18 18 18 17 17 17 17 16 16 16 15 15 15 15 14 13 13 13 13 12 12 12 11 11 11 11 11